User: anonymous   Login
Location: Unspecified
(0.0000°N, 0.0000°E)
Time: 16:40:28
(UTC+00:00)
Language:

USA 229 DEB - Orbit

View from above orbital plane
View from above orbital plane
View from above satellite
View from above satellite

Ground track
Ground track

The orbit data is extracted from the following two-line orbital elements,

1 37391U 11014B   17081.18617539 0.00000000  00000-0  00000-0 0    00
2 37391  63.4389 237.5376 0060000   4.8838 355.1162 13.40728725    00
Epoch (UTC): 22 March 2017 04:28:05
Eccentricity: 0.0060000
inclination: 63.4389°
perigee height: 1061 km
apogee height: 1151 km
right ascension of ascending node: 237.5376°
argument of perigee: 4.8838°
revolutions per day: 13.40728725
mean anomaly at epoch: 355.1162°
orbit number at epoch: 0

The dashed part of the orbit path shows where the satellite is in the earth's shadow,  

DLR